Weather History for Weslaco, TX

Change the Weather History Date:

Tuesday, October 16, 2012

  Actual Average (KMFE) Record (KMFE)
Temperature  
Mean Temperature 83 °F 77 °F  
Max Temperature 95 °F 88 °F 97 °F (1980)
Min Temperature 71 °F 67 °F 50 °F (1954)
Degree Days  
Heating Degree Days 0 0  
Month to date heating degree days 0  
Since 1 July heating degree days 0  
Cooling Degree Days 18 12  
Month to date cooling degree days 221  
Year to date cooling degree days 4020  
Growing Degree Days 33 (Base 50)    
Moisture  
Dew Point 64 °F    
Average Humidity 59    
Maximum Humidity 88    
Minimum Humidity 25    
Precipitation  
Precipitation 0.00 in 0.06 in 1.94 in (1967)
Month to date precipitation 1.17  
Year to date precipitation 19.21  
Sea Level Pressure  
Sea Level Pressure 29.85 in    
Wind  
Wind Speed 5 mph (SSE)    
Max Wind Speed 15 mph    
Max Gust Speed 21 mph    
Visibility 10 miles    
Events      
T = Trace of Precipitation, MM = Missing Value Source: NWS Daily Summary

Daily Weather History Graph

Daily Weather History Graph

Search for Another Location

Airport:

Trip Planner

Search our weather history database for the weather conditions in past years. The results will help you decide how hot, cold, wet, or windy it might be!

Date:

Astronomy

Oct. 16, 2012 Rise Set
Actual Time 7:31 AM CDT 7:02 PM CDT
Civil Twilight 7:08 AM CDT 7:25 PM CDT
Nautical Twilight 6:41 AM CDT 7:52 PM CDT
Astronomical Twilight 6:14 AM CDT 8:19 PM CDT
Moon 8:44 AM CDT (10/16) 8:02 PM CDT (10/16)
Length of Visible Light 12h 17m
Length of Day
11h 30m
New Moon, 2% of the Moon is Illuminated
Oct 16
New Moon
Oct 21
First Quarter
Oct 29
Full
Nov 6
Last Quarter
Nov 13
New

Hourly Weather History & Observations

Time (CDT) Temp. Heat Index Dew Point Humidity Pressure Visibility Wind Dir Wind Speed Gust Speed Precip Events Conditions
12:15 AM 77.0 °F - 68.0 °F 74% 29.96 in 10.0 mi East 3.5 mph - N/A   Clear
12:35 AM 77.0 °F - 68.0 °F 74% 29.95 in 10.0 mi Calm Calm - N/A   Clear
12:55 AM 77.0 °F - 68.0 °F 74% 29.96 in 10.0 mi Calm Calm - N/A   Clear
1:15 AM 77.0 °F - 68.0 °F 74% 29.95 in 10.0 mi SE 3.5 mph - N/A   Clear
1:35 AM 77.0 °F - 68.0 °F 74% 29.94 in 10.0 mi SSE 4.6 mph - N/A   Clear
1:55 AM 77.0 °F - 68.0 °F 74% 29.94 in 10.0 mi Calm Calm - N/A   Clear
2:15 AM 77.0 °F - 68.0 °F 74% 29.94 in 10.0 mi Calm Calm - N/A   Clear
2:35 AM 77.0 °F - 68.0 °F 74% 29.93 in 10.0 mi Calm Calm - N/A   Clear
2:55 AM 75.2 °F - 68.0 °F 78% 29.93 in 10.0 mi Calm Calm - N/A   Clear
3:15 AM 75.2 °F - 68.0 °F 78% 29.93 in 10.0 mi Calm Calm - N/A   Scattered Clouds
3:35 AM 75.2 °F - 68.0 °F 78% 29.92 in 10.0 mi Calm Calm - N/A   Scattered Clouds
3:55 AM 75.2 °F - 68.0 °F 78% 29.91 in 10.0 mi Calm Calm - N/A   Scattered Clouds
4:15 AM 73.4 °F - 68.0 °F 83% 29.91 in 10.0 mi Calm Calm - N/A   Scattered Clouds
4:35 AM 73.4 °F - 68.0 °F 83% 29.91 in 10.0 mi Calm Calm - N/A   Scattered Clouds
4:55 AM 73.4 °F - 68.0 °F 83% 29.90 in 10.0 mi Calm Calm - N/A   Scattered Clouds
5:15 AM 73.4 °F - 68.0 °F 83% 29.90 in 10.0 mi Calm Calm - N/A   Scattered Clouds
5:55 AM 73.4 °F - 68.0 °F 83% 29.90 in 10.0 mi Calm Calm - N/A   Clear
6:15 AM 73.4 °F - 68.0 °F 83% 29.90 in 10.0 mi Calm Calm - N/A   Clear
6:35 AM 71.6 °F - 68.0 °F 88% 29.90 in 10.0 mi Calm Calm - N/A   Clear
7:15 AM 71.6 °F - 68.0 °F 88% 29.89 in 10.0 mi Calm Calm - N/A   Clear
7:35 AM 71.6 °F - 68.0 °F 88% 29.89 in 10.0 mi Calm Calm - N/A   Clear
7:55 AM 71.6 °F - 68.0 °F 88% 29.90 in 10.0 mi Calm Calm - N/A   Clear
8:15 AM 73.4 °F - 68.0 °F 83% 29.90 in 7.0 mi SE 3.5 mph - N/A   Clear
8:35 AM 75.2 °F - 68.0 °F 78% 29.90 in 10.0 mi SSE 4.6 mph - N/A   Clear
8:55 AM 77.0 °F - 68.0 °F 74% 29.90 in 10.0 mi SSE 4.6 mph - N/A   Clear
9:15 AM 77.0 °F - 68.0 °F 74% 29.90 in 7.0 mi South 6.9 mph - N/A   Clear
9:35 AM 78.8 °F - 68.0 °F 69% 29.92 in 10.0 mi SSW 5.8 mph - N/A   Clear
9:55 AM 78.8 °F - 68.0 °F 69% 29.92 in 10.0 mi SSW 9.2 mph - N/A   Clear
10:15 AM 80.6 °F 83.2 °F 68.0 °F 65% 29.91 in 7.0 mi South 8.1 mph 16.1 mph N/A   Clear
10:35 AM 82.4 °F 85.4 °F 68.0 °F 62% 29.91 in 10.0 mi South 11.5 mph - N/A   Scattered Clouds
10:55 AM 84.2 °F 86.6 °F 66.2 °F 55% 29.91 in 10.0 mi South 10.4 mph - N/A   Clear
11:15 AM 86.0 °F 88.2 °F 66.2 °F 51% 29.91 in 10.0 mi South 9.2 mph - N/A   Clear
11:35 AM 86.0 °F 86.6 °F 62.6 °F 45% 29.90 in 10.0 mi South 10.4 mph - N/A   Clear
11:55 AM 87.8 °F 88.5 °F 62.6 °F 43% 29.89 in 10.0 mi South 10.4 mph - N/A   Clear
12:15 PM 89.6 °F 90.1 °F 62.6 °F 40% 29.88 in 7.0 mi South 9.2 mph 18.4 mph N/A   Scattered Clouds
12:35 PM 89.6 °F 89.5 °F 60.8 °F 38% 29.88 in 10.0 mi South 10.4 mph 16.1 mph N/A   Scattered Clouds
12:55 PM 89.6 °F 89.5 °F 60.8 °F 38% 29.87 in 10.0 mi SSW 9.2 mph - N/A   Scattered Clouds
1:15 PM 91.4 °F 90.7 °F 59.0 °F 34% 29.85 in 10.0 mi SSE 11.5 mph 16.1 mph N/A   Clear
1:35 PM 91.4 °F 90.7 °F 59.0 °F 34% 29.83 in 10.0 mi South 11.5 mph 17.3 mph N/A   Clear
1:55 PM 91.4 °F 90.7 °F 59.0 °F 34% 29.82 in 10.0 mi SSE 12.7 mph 17.3 mph N/A   Clear
2:15 PM 91.4 °F 90.7 °F 59.0 °F 34% 29.80 in 10.0 mi SSE 8.1 mph - N/A   Clear
2:35 PM 93.2 °F 92.6 °F 59.0 °F 32% 29.80 in 10.0 mi South 9.2 mph - N/A   Clear
2:55 PM 93.2 °F 91.9 °F 57.2 °F 30% 29.78 in 10.0 mi SE 10.4 mph 20.7 mph N/A   Clear
3:15 PM 93.2 °F 91.9 °F 57.2 °F 30% 29.77 in 10.0 mi SE 12.7 mph 18.4 mph N/A   Scattered Clouds
3:55 PM 95.0 °F 92.7 °F 53.6 °F 25% 29.76 in 10.0 mi South 13.8 mph 20.7 mph N/A   Clear
4:15 PM 91.4 °F - 51.8 °F 26% 29.75 in 10.0 mi SSE 10.4 mph 17.3 mph N/A   Clear
4:35 PM 91.4 °F - 51.8 °F 26% 29.75 in 10.0 mi SSE 11.5 mph - N/A   Clear
4:55 PM 91.4 °F - 51.8 °F 26% 29.74 in 10.0 mi SSE 10.4 mph - N/A   Clear
5:15 PM 91.4 °F 89.4 °F 55.4 °F 29% 29.74 in 10.0 mi South 8.1 mph - N/A   Clear
5:35 PM 89.6 °F 88.9 °F 59.0 °F 36% 29.73 in 10.0 mi SE 12.7 mph 17.3 mph N/A   Clear
5:55 PM 89.6 °F 87.7 °F 55.4 °F 31% 29.73 in 10.0 mi SE 12.7 mph 17.3 mph N/A   Clear
6:15 PM 87.8 °F 86.1 °F 55.4 °F 33% 29.74 in 10.0 mi SE 10.4 mph 16.1 mph N/A   Clear
6:35 PM 86.0 °F 84.2 °F 53.6 °F 33% 29.73 in 10.0 mi SE 15.0 mph 18.4 mph N/A   Clear
6:55 PM 86.0 °F 84.5 °F 55.4 °F 35% 29.75 in 10.0 mi SSE 11.5 mph 17.3 mph N/A   Clear
7:15 PM 82.4 °F 81.7 °F 55.4 °F 39% 29.75 in 10.0 mi SSE 10.4 mph - N/A   Clear
7:35 PM 82.4 °F 82.5 °F 59.0 °F 45% 29.75 in 10.0 mi SE 8.1 mph - N/A   Clear
7:55 PM 82.4 °F 82.9 °F 60.8 °F 48% 29.75 in 10.0 mi SE 8.1 mph - N/A   Clear
8:15 PM 80.6 °F 81.5 °F 60.8 °F 51% 29.76 in 10.0 mi SE 8.1 mph - N/A   Clear
8:35 PM 80.6 °F 81.8 °F 62.6 °F 54% 29.77 in 10.0 mi SE 10.4 mph - N/A   Clear
8:55 PM 80.6 °F 82.3 °F 64.4 °F 58% 29.78 in 10.0 mi SE 11.5 mph - N/A   Clear
9:35 PM 78.8 °F - 64.4 °F 61% 29.80 in 10.0 mi SSE 9.2 mph - N/A   Clear
9:55 PM 78.8 °F - 64.4 °F 61% 29.80 in 10.0 mi SSE 9.2 mph - N/A   Clear
10:35 PM 78.8 °F - 66.2 °F 65% 29.80 in 10.0 mi SSE 8.1 mph - N/A   Clear
10:55 PM 77.0 °F - 66.2 °F 69% 29.80 in 10.0 mi SSE 8.1 mph - N/A   Clear
11:15 PM 77.0 °F - 66.2 °F 69% 29.80 in 10.0 mi SSE 8.1 mph - N/A   Clear
11:35 PM 77.0 °F - 66.2 °F 69% 29.80 in 10.0 mi SSE 6.9 mph - N/A   Clear
11:55 PM 77.0 °F - 66.2 °F 69% 29.79 in 10.0 mi SSE 5.8 mph - N/A   Clear